• In Portugal
  • List of Countries
  • For 7 days
  • Water Temperature
  • Satellite Maps
  • Weather Map
  • Weather Widgets
  • user-avatar
    Login

    Hourly Weather Uige

    Today, 21 July, Saturday

    Time Temperature Precipitation Wind Pressure Humidity
    00:00 +21°C° 0 mm 1 mps 692 mmHg 50%
    01:00 +21°C° 0 mm 1 mps 692 mmHg 55%
    02:00 +20°C° 0 mm 1 mps 691 mmHg 58%
    03:00 +20°C° 0 mm 1 mps 691 mmHg 61%
    04:00 +17°C° 0 mm 0 mps 691 mmHg 63%
    05:00 +19°C° 0 mm 1 mps 691 mmHg 61%
    06:00 +20°C° 0 mm 1 mps 692 mmHg 58%
    07:00 +20°C° 0 mm 1 mps 692 mmHg 56%
    08:00 +24°C° 0 mm 1 mps 693 mmHg 44%
    09:00 +28°C° 0 mm 1 mps 693 mmHg 32%
    10:00 +32°C° 0 mm 2 mps 694 mmHg 21%
    11:00 +35°C° 0 mm 2 mps 694 mmHg 18%
    12:00 +37°C° 0 mm 2 mps 693 mmHg 16%
    13:00 +38°C° 0 mm 2 mps 693 mmHg 14%
    14:00 +37°C° 0 mm 1 mps 692 mmHg 14%
    15:00 +37°C° 0 mm 1 mps 692 mmHg 14%
    16:00 +36°C° 0 mm 1 mps 691 mmHg 14%
    17:00 +33°C° 0 mm 1 mps 691 mmHg 18%
    18:00 +30°C° 0 mm 1 mps 691 mmHg 22%
    19:00 +27°C° 0 mm 1 mps 691 mmHg 27%
    20:00 +26°C° 0 mm 1 mps 691 mmHg 34%
    21:00 +25°C° 0 mm 1 mps 692 mmHg 41%
    22:00 +23°C° 0 mm 1 mps 692 mmHg 49%
    23:00 +22°C° 0 mm 1 mps 692 mmHg 58%

    Tomorrow, 22 July, Sunday

    Time Temperature Precipitation Wind Pressure Humidity
    00:00 +21°C° 0 mm 1 mps 692 mmHg 67%
    01:00 +20°C° 0 mm 1 mps 692 mmHg 76%
    02:00 +20°C° 0 mm 1 mps 692 mmHg 81%
    03:00 +19°C° 0 mm 1 mps 691 mmHg 86%
    04:00 +19°C° 0 mm 1 mps 691 mmHg 90%
    05:00 +19°C° 0 mm 1 mps 691 mmHg 88%
    06:00 +19°C° 0 mm 1 mps 692 mmHg 85%
    07:00 +19°C° 0 mm 1 mps 692 mmHg 83%
    08:00 +24°C° 0 mm 1 mps 693 mmHg 63%
    09:00 +28°C° 0 mm 1 mps 694 mmHg 44%
    10:00 +32°C° 0 mm 2 mps 695 mmHg 24%
    11:00 +35°C° 0 mm 2 mps 694 mmHg 20%
    12:00 +37°C° 0 mm 2 mps 694 mmHg 16%
    13:00 +40°C° 0 mm 2 mps 693 mmHg 11%
    14:00 +39°C° 0 mm 1 mps 692 mmHg 11%
    15:00 +39°C° 0 mm 1 mps 692 mmHg 11%
    16:00 +37°C° 0 mm 1 mps 691 mmHg 11%
    17:00 +34°C° 0 mm 1 mps 691 mmHg 15%
    18:00 +31°C° 0 mm 1 mps 691 mmHg 19%
    19:00 +27°C° 0 mm 1 mps 691 mmHg 24%
    20:00 +26°C° 0 mm 1 mps 692 mmHg 35%
    21:00 +24°C° 0 mm 2 mps 692 mmHg 47%
    22:00 +23°C° 0 mm 2 mps 693 mmHg 58%
    23:00 +21°C° 0 mm 2 mps 693 mmHg 67%

    Day after tomorrow, 23 July, Monday

    Time Temperature Precipitation Wind Pressure Humidity
    00:00 +20°C° 0 mm 2 mps 693 mmHg 76%
    01:00 +19°C° 0 mm 2 mps 692 mmHg 85%
    02:00 +19°C° 0 mm 2 mps 692 mmHg 86%
    03:00 +19°C° 0 mm 1 mps 692 mmHg 87%
    04:00 +19°C° 0 mm 1 mps 691 mmHg 88%
    05:00 +19°C° 0 mm 1 mps 692 mmHg 85%
    06:00 +19°C° 0 mm 1 mps 692 mmHg 83%
    07:00 +19°C° 0 mm 1 mps 692 mmHg 80%
    08:00 +24°C° 0 mm 1 mps 693 mmHg 61%
    09:00 +28°C° 0 mm 2 mps 694 mmHg 42%
    10:00 +34°C° 0 mm 3 mps 695 mmHg 23%
    11:00 +35°C° 0 mm 3 mps 694 mmHg 19%
    12:00 +37°C° 0 mm 2 mps 693 mmHg 16%
    13:00 +39°C° 0 mm 2 mps 693 mmHg 12%
    14:00 +39°C° 0 mm 2 mps 692 mmHg 12%
    15:00 +38°C° 0 mm 2 mps 692 mmHg 12%
    16:00 +38°C° 0 mm 2 mps 691 mmHg 12%
    17:00 +35°C° 0 mm 2 mps 691 mmHg 17%
    18:00 +31°C° 0 mm 2 mps 691 mmHg 22%
    19:00 +28°C° 0 mm 1 mps 691 mmHg 26%
    20:00 +26°C° 0 mm 1 mps 692 mmHg 35%
    21:00 +25°C° 0 mm 1 mps 692 mmHg 45%
    22:00 +23°C° 0 mm 1 mps 693 mmHg 54%
    23:00 +22°C° 0 mm 1 mps 693 mmHg 62%

    24 July, Tuesday

    Time Temperature Precipitation Wind Pressure Humidity
    00:00 +21°C° 0 mm 1 mps 692 mmHg 70%
    01:00 +20°C° 0 mm 1 mps 692 mmHg 78%
    02:00 +20°C° 0 mm 1 mps 692 mmHg 82%
    03:00 +19°C° 0 mm 1 mps 691 mmHg 86%
    04:00 +17°C° 0 mm 0 mps 691 mmHg 90%
    05:00 +17°C° 0 mm 0 mps 692 mmHg 87%
    06:00 +19°C° 0 mm 1 mps 692 mmHg 84%
    07:00 +20°C° 0 mm 1 mps 693 mmHg 82%
    08:00 +24°C° 0 mm 1 mps 694 mmHg 65%
    09:00 +28°C° 0 mm 1 mps 694 mmHg 48%
    10:00 +32°C° 0 mm 2 mps 695 mmHg 31%
    11:00 +35°C° 0 mm 2 mps 694 mmHg 25%
    12:00 +36°C° 0 mm 1 mps 694 mmHg 20%
    13:00 +39°C° 0 mm 1 mps 693 mmHg 15%
    14:00 +39°C° 0 mm 1 mps 692 mmHg 15%
    15:00 +39°C° 0 mm 1 mps 692 mmHg 14%
    16:00 +37°C° 0 mm 1 mps 691 mmHg 14%
    17:00 +34°C° 0 mm 1 mps 691 mmHg 19%
    18:00 +31°C° 0 mm 2 mps 691 mmHg 24%
    19:00 +29°C° 0 mm 2 mps 691 mmHg 29%
    20:00 +27°C° 0 mm 1 mps 692 mmHg 38%
    21:00 +25°C° 0 mm 1 mps 692 mmHg 46%
    22:00 +24°C° 0 mm 1 mps 693 mmHg 55%
    23:00 +23°C° 0 mm 1 mps 692 mmHg 62%

    25 July, Wednesday

    Time Temperature Precipitation Wind Pressure Humidity
    00:00 +22°C° 0 mm 1 mps 692 mmHg 69%
    01:00 +21°C° 0 mm 1 mps 692 mmHg 76%
    02:00 +20°C° 0 mm 1 mps 692 mmHg 81%
    03:00 +19°C° 0 mm 1 mps 692 mmHg 86%
    04:00 +19°C° 0 mm 1 mps 691 mmHg 91%
    05:00 +19°C° 0 mm 1 mps 692 mmHg 90%
    06:00 +17°C° 0 mm 0 mps 692 mmHg 88%
    07:00 +17°C° 0 mm 0 mps 693 mmHg 87%
    08:00 +23°C° 0 mm 1 mps 693 mmHg 70%
    09:00 +27°C° 0 mm 1 mps 694 mmHg 52%
    10:00 +31°C° 0 mm 1 mps 695 mmHg 35%
    11:00 +34°C° 0 mm 1 mps 694 mmHg 28%
    12:00 +36°C° 0 mm 1 mps 694 mmHg 22%
    13:00 +40°C° 0 mm 1 mps 693 mmHg 16%
    14:00 +39°C° 0 mm 1 mps 692 mmHg 15%
    15:00 +37°C° 0 mm 1 mps 692 mmHg 15%
    16:00 +37°C° 0 mm 1 mps 691 mmHg 15%
    17:00 +35°C° 0 mm 2 mps 691 mmHg 21%
    18:00 +31°C° 0 mm 2 mps 691 mmHg 26%
    19:00 +28°C° 0 mm 2 mps 691 mmHg 32%
    20:00 +27°C° 0 mm 2 mps 692 mmHg 42%
    21:00 +25°C° 0 mm 2 mps 692 mmHg 52%
    22:00 +24°C° 0 mm 2 mps 693 mmHg 63%
    23:00 +23°C° 0 mm 2 mps 693 mmHg 70%

    26 July, Thursday

    Time Temperature Precipitation Wind Pressure Humidity
    00:00 +21°C° 0 mm 2 mps 692 mmHg 77%
    01:00 +20°C° 0 mm 2 mps 692 mmHg 83%
    02:00 +19°C° 0 mm 2 mps 692 mmHg 84%
    03:00 +19°C° 0 mm 2 mps 692 mmHg 85%
    04:00 +19°C° 0 mm 2 mps 692 mmHg 86%
    05:00 +19°C° 0 mm 2 mps 692 mmHg 85%
    06:00 +19°C° 0 mm 2 mps 693 mmHg 84%
    07:00 +20°C° 0 mm 1 mps 693 mmHg 83%
    08:00 +23°C° 0 mm 2 mps 694 mmHg 71%
    09:00 +25°C° 0 mm 2 mps 694 mmHg 58%
    10:00 +28°C° 0 mm 2 mps 695 mmHg 46%
    11:00 +31°C° 0 mm 1 mps 694 mmHg 39%
    12:00 +33°C° 0 mm 1 mps 694 mmHg 32%
    13:00 +36°C° 0 mm 1 mps 693 mmHg 24%
    14:00 +36°C° 0 mm 2 mps 693 mmHg 25%
    15:00 +35°C° 0 mm 2 mps 692 mmHg 26%
    16:00 +34°C° 0 mm 2 mps 691 mmHg 27%
    17:00 +31°C° 0 mm 3 mps 692 mmHg 35%
    18:00 +29°C° 0 mm 3 mps 692 mmHg 44%
    19:00 +26°C° 0 mm 4 mps 692 mmHg 53%
    20:00 +25°C° 0 mm 3 mps 693 mmHg 61%
    21:00 +22°C° 0 mm 3 mps 693 mmHg 69%
    22:00 +21°C° 0 mm 2 mps 694 mmHg 77%
    23:00 +20°C° 0 mm 2 mps 693 mmHg 80%
    Show more